Simultaneous Nadir Overpasses (SNOs) Predictions

Prediction of SNOs between AQUA and NPP Satellite Orbit:

Table of predicted SNOs for the next 14.0 days since TLE Epoch: 2/16/2018
Index Date (AQUA) Time (AQUA) Lat,Lon (AQUA) SZA (AQUA ) Date (NPP) Time (NPP) Lat,Lon (NPP) SZA (NPP ) Distance(km) Time Diff (sec)
1 02/17/2018 22:38:25 76.60, 81.57 108.66 02/17/2018 22:37:57 76.60, 81.61 108.67 1.04 28
2 02/17/2018 23:27:38 -77.29,-108.26 72.18 02/17/2018 23:28:27 -77.28,-108.31 72.21 1.41 49
3 02/20/2018 14:54:50 76.87,-161.60 107.39 02/20/2018 14:54:44 76.87,-161.57 107.39 0.72 6
4 02/20/2018 15:44:04 -77.50, 8.50 73.39 02/20/2018 15:45:15 -77.50, 8.43 73.44 1.84 71
5 02/23/2018 06:22:15 -75.93, 143.51 72.47 02/23/2018 06:21:14 -75.92, 143.41 72.40 2.79 61
6 02/23/2018 07:11:15 77.13, -44.75 106.11 02/23/2018 07:11:31 77.13, -44.72 106.09 0.89 16
7 02/25/2018 22:38:38 -76.29, -99.46 73.89 02/25/2018 22:37:59 -76.28, -99.55 73.83 2.54 39
8 02/25/2018 23:27:39 77.43, 72.30 104.76 02/25/2018 23:28:17 77.43, 72.37 104.71 1.56 38
9 02/28/2018 14:55:00 -76.65, 17.61 75.31 02/28/2018 14:54:43 -76.64, 17.55 75.28 1.73 17




NCC Satellite Simultaneous Nadir Overpasses (SNOs) Prediction Service
